TimeCDT,TemperatureF,Dew PointF,Humidity,Sea Level PressureIn,VisibilityMPH,Wind Direction,Wind SpeedMPH,Gust SpeedMPH,PrecipitationIn,Events,Conditions,WindDirDegrees,DateUTC
12:15 AM,62.6,50.0,63,30.08,10.0,ESE,12.7,17.3,N/A,,Clear,120,2013-04-22 05:15:00
12:35 AM,60.8,50.0,68,30.07,10.0,SE,12.7,-,N/A,,Clear,130,2013-04-22 05:35:00
12:55 AM,60.8,50.0,68,30.07,10.0,SE,11.5,-,N/A,,Clear,130,2013-04-22 05:55:00
1:15 AM,60.8,50.0,68,30.08,10.0,SE,12.7,17.3,N/A,,Clear,130,2013-04-22 06:15:00
1:35 AM,59.0,50.0,72,30.07,10.0,SE,12.7,-,N/A,,Clear,130,2013-04-22 06:35:00
1:55 AM,59.0,50.0,72,30.06,10.0,SE,11.5,17.3,N/A,,Clear,130,2013-04-22 06:55:00
2:15 AM,59.0,50.0,72,30.06,10.0,SE,10.4,-,N/A,,Clear,130,2013-04-22 07:15:00
2:35 AM,59.0,50.0,72,30.05,10.0,SE,10.4,-,N/A,,Clear,140,2013-04-22 07:35:00
2:55 AM,59.0,51.8,77,30.05,10.0,SE,9.2,17.3,N/A,,Clear,140,2013-04-22 07:55:00
3:15 AM,59.0,51.8,77,30.04,10.0,SE,9.2,-,N/A,,Clear,140,2013-04-22 08:15:00
3:35 AM,59.0,53.6,82,30.04,10.0,SE,11.5,16.1,N/A,,Partly Cloudy,140,2013-04-22 08:35:00
3:55 AM,59.0,53.6,82,30.04,10.0,SSE,11.5,-,N/A,,Mostly Cloudy,150,2013-04-22 08:55:00
4:15 AM,59.0,53.6,82,30.04,10.0,SSE,10.4,-,N/A,,Overcast,150,2013-04-22 09:15:00
4:35 AM,59.0,53.6,82,30.04,10.0,SSE,10.4,18.4,N/A,,Overcast,160,2013-04-22 09:35:00
4:55 AM,59.0,55.4,88,30.04,10.0,SSE,9.2,18.4,N/A,,Overcast,160,2013-04-22 09:55:00
5:15 AM,60.8,55.4,82,30.03,10.0,SSE,11.5,19.6,N/A,,Overcast,150,2013-04-22 10:15:00
5:35 AM,60.8,55.4,82,30.03,10.0,SSE,13.8,20.7,N/A,,Overcast,160,2013-04-22 10:35:00
6:15 AM,60.8,55.4,82,30.03,10.0,South,15.0,20.7,N/A,,Overcast,170,2013-04-22 11:15:00
6:35 AM,60.8,53.6,77,30.04,10.0,SSE,16.1,21.9,N/A,,Overcast,160,2013-04-22 11:35:00
6:55 AM,59.0,53.6,82,30.04,10.0,SSE,11.5,17.3,N/A,,Scattered Clouds,160,2013-04-22 11:55:00
7:15 AM,59.0,53.6,82,30.04,10.0,SSE,13.8,19.6,N/A,,Scattered Clouds,160,2013-04-22 12:15:00
7:35 AM,59.0,53.6,82,30.05,10.0,SSE,12.7,18.4,N/A,,Overcast,150,2013-04-22 12:35:00
7:55 AM,59.0,53.6,82,30.05,10.0,SSE,13.8,21.9,N/A,,Overcast,150,2013-04-22 12:55:00
8:15 AM,59.0,55.4,88,30.06,10.0,SSE,12.7,17.3,N/A,,Overcast,160,2013-04-22 13:15:00
8:35 AM,60.8,53.6,77,30.06,10.0,SSE,10.4,19.6,N/A,,Overcast,160,2013-04-22 13:35:00
8:55 AM,60.8,55.4,82,30.05,10.0,SSE,12.7,18.4,N/A,,Overcast,160,2013-04-22 13:55:00
9:15 AM,62.6,55.4,77,30.05,10.0,SSE,11.5,18.4,N/A,,Overcast,160,2013-04-22 14:15:00
9:35 AM,62.6,55.4,77,30.05,10.0,SSE,15.0,23.0,N/A,,Overcast,160,2013-04-22 14:35:00
9:55 AM,62.6,55.4,77,30.05,10.0,SSE,15.0,21.9,N/A,,Overcast,160,2013-04-22 14:55:00
10:15 AM,64.4,55.4,73,30.05,10.0,South,13.8,19.6,N/A,,Overcast,170,2013-04-22 15:15:00
10:35 AM,64.4,55.4,73,30.05,10.0,South,15.0,-,N/A,,Overcast,190,2013-04-22 15:35:00
10:55 AM,66.2,55.4,68,30.05,10.0,South,16.1,24.2,N/A,,Overcast,180,2013-04-22 15:55:00
11:15 AM,66.2,55.4,68,30.05,10.0,South,18.4,21.9,N/A,,Overcast,180,2013-04-22 16:15:00
11:35 AM,66.2,55.4,68,30.05,10.0,South,16.1,26.5,N/A,,Overcast,190,2013-04-22 16:35:00
11:55 AM,68.0,55.4,64,30.04,10.0,South,16.1,25.3,N/A,,Overcast,180,2013-04-22 16:55:00
12:15 PM,68.0,55.4,64,30.04,10.0,South,17.3,25.3,N/A,,Overcast,180,2013-04-22 17:15:00
12:35 PM,69.8,55.4,60,30.03,10.0,SSW,18.4,23.0,N/A,,Overcast,200,2013-04-22 17:35:00
12:55 PM,71.6,55.4,57,30.02,10.0,South,16.1,21.9,N/A,,Overcast,190,2013-04-22 17:55:00
1:15 PM,71.6,55.4,57,30.00,10.0,SSW,16.1,26.5,N/A,,Mostly Cloudy,200,2013-04-22 18:15:00
1:35 PM,73.4,55.4,53,29.99,10.0,South,13.8,21.9,N/A,,Scattered Clouds,180,2013-04-22 18:35:00
1:55 PM,75.2,55.4,50,29.98,10.0,South,12.7,28.8,N/A,,Clear,190,2013-04-22 18:55:00
2:15 PM,75.2,55.4,50,29.96,10.0,SSW,16.1,25.3,N/A,,Clear,200,2013-04-22 19:15:00
2:35 PM,77.0,55.4,47,29.95,10.0,South,16.1,23.0,N/A,,Clear,180,2013-04-22 19:35:00
2:55 PM,77.0,55.4,47,29.94,10.0,South,16.1,24.2,N/A,,Clear,170,2013-04-22 19:55:00
3:15 PM,78.8,55.4,44,29.92,10.0,South,13.8,23.0,N/A,,Clear,190,2013-04-22 20:15:00
3:35 PM,78.8,55.4,44,29.91,10.0,South,16.1,21.9,N/A,,Clear,170,2013-04-22 20:35:00
3:55 PM,80.6,55.4,42,29.90,10.0,South,15.0,23.0,N/A,,Clear,180,2013-04-22 20:55:00
4:15 PM,80.6,55.4,42,29.88,10.0,South,11.5,20.7,N/A,,Clear,190,2013-04-22 21:15:00
4:35 PM,82.4,55.4,39,29.87,10.0,SSE,18.4,25.3,N/A,,Clear,160,2013-04-22 21:35:00
4:55 PM,82.4,55.4,39,29.86,10.0,South,13.8,23.0,N/A,,Clear,170,2013-04-22 21:55:00
5:15 PM,82.4,55.4,39,29.85,10.0,South,12.7,23.0,N/A,,Clear,170,2013-04-22 22:15:00
5:35 PM,82.4,55.4,39,29.84,10.0,SSE,12.7,24.2,N/A,,Clear,160,2013-04-22 22:35:00
5:55 PM,82.4,55.4,39,29.83,10.0,SSE,15.0,20.7,N/A,,Clear,160,2013-04-22 22:55:00
6:15 PM,82.4,53.6,37,29.83,10.0,SSE,18.4,24.2,N/A,,Clear,160,2013-04-22 23:15:00
6:35 PM,80.6,53.6,39,29.82,10.0,SSE,17.3,26.5,N/A,,Clear,150,2013-04-22 23:35:00
6:55 PM,80.6,53.6,39,29.82,10.0,SSE,17.3,21.9,N/A,,Clear,160,2013-04-22 23:55:00
7:15 PM,80.6,53.6,39,29.82,10.0,South,16.1,20.7,N/A,,Clear,170,2013-04-23 00:15:00
7:35 PM,78.8,53.6,42,29.81,10.0,South,15.0,23.0,N/A,,Clear,170,2013-04-23 00:35:00
7:55 PM,77.0,53.6,44,29.81,10.0,South,11.5,20.7,N/A,,Clear,170,2013-04-23 00:55:00
8:15 PM,75.2,53.6,47,29.82,10.0,South,11.5,-,N/A,,Clear,170,2013-04-23 01:15:00
8:35 PM,75.2,53.6,47,29.82,10.0,South,12.7,16.1,N/A,,Clear,170,2013-04-23 01:35:00
8:55 PM,75.2,53.6,47,29.83,10.0,South,10.4,-,N/A,,Partly Cloudy,170,2013-04-23 01:55:00
9:15 PM,73.4,53.6,50,29.84,10.0,SSE,6.9,-,N/A,,Partly Cloudy,160,2013-04-23 02:15:00
9:35 PM,73.4,53.6,50,29.85,10.0,SSE,5.8,-,N/A,,Scattered Clouds,150,2013-04-23 02:35:00
9:55 PM,69.8,53.6,56,29.86,10.0,ESE,6.9,-,N/A,,Partly Cloudy,120,2013-04-23 02:55:00
10:15 PM,66.2,53.6,64,29.86,10.0,SE,8.1,-,N/A,,Partly Cloudy,130,2013-04-23 03:15:00
10:35 PM,64.4,53.6,68,29.86,10.0,ESE,5.8,-,N/A,,Partly Cloudy,110,2013-04-23 03:35:00
10:55 PM,66.2,55.4,68,29.86,10.0,SE,8.1,-,N/A,,Partly Cloudy,130,2013-04-23 03:55:00
11:15 PM,66.2,55.4,68,29.86,10.0,SE,8.1,-,N/A,,Partly Cloudy,130,2013-04-23 04:15:00
11:35 PM,68.0,55.4,64,29.85,10.0,SE,8.1,-,N/A,,Partly Cloudy,140,2013-04-23 04:35:00
11:55 PM,66.2,55.4,68,29.84,10.0,SSE,6.9,-,N/A,,Clear,150,2013-04-23 04:55:00